Tracking 19817 objects as of 19-Aug-2019
HD Live streaming from Space Station
objects crossing your sky now

COSMOS 2251 DEB

Track COSMOS 2251 DEB now!
10-day predictions


NORAD ID: 34401
Int'l Code: 1993-036QS
Perigee: 669.3 km
Apogee: 763.7 km
Inclination: 74.0 °
Period: 99.0 minutes
Semi major axis: 7087 km
RCS: 0.033 m2 (small)
Launch date: June 16, 1993
Source: Commonwealth of Independent States (former USSR) (CIS)
Launch site: PLESETSK MISSILE AND SPACE COMPLEX (PKMTR)

Note: This is SATELLITE DEBRIS
aabbcc
Your satellite tracking list
Your tracking list is empty




NASA's NSSDC Master Catalog

Two Line Element Set (TLE):
1 34401U 93036QS  19230.91704147 +.00000534 +00000-0 +12738-3 0  9997
2 34401 074.0476 048.3009 0066626 340.4424 170.3561 14.55000530555116
Source of the keplerian elements: AFSPC